• In Lithuania
  • List of Countries
  • For 7 days
  • Water Temperature
  • Satellite Maps
  • Weather Map
  • Weather Widgets
  • user-avatar
    Login

    Hourly Weather Ioannina

    Today, 19 January, Friday

    Time Temperature Precipitation Wind Pressure Humidity
    00:00 -2°C° 0 mm 2 mps 686 mmHg 53%
    01:00 -2°C° 0 mm 2 mps 686 mmHg 52%
    02:00 -2°C° 0 mm 2 mps 686 mmHg 54%
    03:00 -2°C° 0 mm 2 mps 685 mmHg 56%
    04:00 -2°C° 0 mm 2 mps 685 mmHg 58%
    05:00 -2°C° 0 mm 2 mps 685 mmHg 60%
    06:00 -2°C° 0 mm 2 mps 685 mmHg 62%
    07:00 -1°C° 0 mm 2 mps 685 mmHg 63%
    08:00 +2°C° 0 mm 2 mps 686 mmHg 63%
    09:00 +4°C° 0 mm 2 mps 686 mmHg 62%
    10:00 +6°C° 0 mm 2 mps 686 mmHg 62%
    11:00 +6°C° 0 mm 2 mps 686 mmHg 63%
    12:00 +7°C° 0 mm 3 mps 686 mmHg 65%
    13:00 +8°C° 0 mm 3 mps 686 mmHg 66%
    14:00 +7°C° 0 mm 3 mps 686 mmHg 72%
    15:00 +6°C° 0 mm 2 mps 685 mmHg 78%
    16:00 +5°C° 0 mm 2 mps 685 mmHg 84%
    17:00 +4°C° 0 mm 2 mps 685 mmHg 86%
    18:00 +4°C° 0 mm 2 mps 685 mmHg 88%
    19:00 +3°C° 0 mm 2 mps 685 mmHg 91%
    20:00 +3°C° 0 mm 2 mps 685 mmHg 91%
    21:00 +3°C° 0 mm 2 mps 685 mmHg 91%
    22:00 +3°C° 0 mm 2 mps 685 mmHg 91%
    23:00 +3°C° 0.1 mm 2 mps 685 mmHg 91%

    Tomorrow, 20 January, Saturday

    Time Temperature Precipitation Wind Pressure Humidity
    00:00 +3°C° 0.1 mm 2 mps 685 mmHg 92%
    01:00 +3°C° 0.1 mm 2 mps 685 mmHg 93%
    02:00 +4°C° 0.2 mm 2 mps 685 mmHg 93%
    03:00 +4°C° 0.2 mm 2 mps 684 mmHg 94%
    04:00 +4°C° 0.2 mm 2 mps 684 mmHg 95%
    05:00 +4°C° 0.2 mm 2 mps 684 mmHg 95%
    06:00 +4°C° 0.2 mm 2 mps 684 mmHg 95%
    07:00 +4°C° 0.2 mm 2 mps 684 mmHg 96%
    08:00 +5°C° 0.3 mm 2 mps 684 mmHg 95%
    09:00 +5°C° 0.3 mm 2 mps 684 mmHg 94%
    10:00 +5°C° 0.3 mm 3 mps 684 mmHg 93%
    11:00 +5°C° 0.6 mm 3 mps 683 mmHg 92%
    12:00 +7°C° 0.6 mm 3 mps 683 mmHg 90%
    13:00 +7°C° 0.6 mm 3 mps 683 mmHg 89%
    14:00 +7°C° 1.1 mm 3 mps 682 mmHg 90%
    15:00 +7°C° 1.1 mm 3 mps 682 mmHg 91%
    16:00 +5°C° 1.1 mm 3 mps 682 mmHg 92%
    17:00 +6°C° 0.6 mm 2 mps 682 mmHg 93%
    18:00 +6°C° 0.6 mm 2 mps 682 mmHg 94%
    19:00 +5°C° 0.6 mm 2 mps 682 mmHg 95%
    20:00 +5°C° 0.1 mm 2 mps 682 mmHg 95%
    21:00 +6°C° 0.1 mm 1 mps 683 mmHg 95%
    22:00 +6°C° 0.1 mm 1 mps 683 mmHg 95%
    23:00 +5°C° 0.1 mm 1 mps 683 mmHg 95%

    Day after tomorrow, 21 January, Sunday

    Time Temperature Precipitation Wind Pressure Humidity
    00:00 +5°C° 0.1 mm 1 mps 682 mmHg 95%
    01:00 +5°C° 0.1 mm 1 mps 682 mmHg 95%
    02:00 +4°C° 0 mm 1 mps 682 mmHg 95%
    03:00 +4°C° 0 mm 1 mps 682 mmHg 95%
    04:00 +4°C° 0 mm 1 mps 681 mmHg 95%
    05:00 +4°C° 0 mm 1 mps 681 mmHg 94%
    06:00 +4°C° 0 mm 1 mps 681 mmHg 93%
    07:00 +4°C° 0 mm 1 mps 681 mmHg 92%
    08:00 +4°C° 0.2 mm 2 mps 681 mmHg 90%
    09:00 +5°C° 0.2 mm 2 mps 681 mmHg 88%
    10:00 +5°C° 0.2 mm 2 mps 681 mmHg 87%
    11:00 +6°C° 0.9 mm 2 mps 680 mmHg 87%
    12:00 +6°C° 0.9 mm 2 mps 680 mmHg 88%
    13:00 +6°C° 0.9 mm 2 mps 679 mmHg 88%
    14:00 +6°C° 0.7 mm 1 mps 679 mmHg 90%
    15:00 +6°C° 0.7 mm 1 mps 679 mmHg 91%
    16:00 +6°C° 0.7 mm 1 mps 679 mmHg 92%
    17:00 +6°C° 0.1 mm 1 mps 679 mmHg 93%
    18:00 +5°C° 0.1 mm 1 mps 679 mmHg 94%
    19:00 +5°C° 0.1 mm 1 mps 680 mmHg 95%
    20:00 +4°C° 0 mm 1 mps 680 mmHg 95%
    21:00 +4°C° 0 mm 1 mps 680 mmHg 94%
    22:00 +3°C° 0 mm 2 mps 680 mmHg 94%
    23:00 +2°C° 0 mm 2 mps 680 mmHg 93%

    22 January, Monday

    Time Temperature Precipitation Wind Pressure Humidity
    00:00 +2°C° 0 mm 2 mps 680 mmHg 92%
    01:00 +1°C° 0 mm 2 mps 680 mmHg 91%
    02:00 +1°C° 0 mm 2 mps 680 mmHg 90%
    03:00 +1°C° 0 mm 2 mps 680 mmHg 88%
    04:00 +2°C° 0 mm 1 mps 680 mmHg 87%
    05:00 +2°C° 0 mm 1 mps 681 mmHg 85%
    06:00 +1°C° 0 mm 1 mps 681 mmHg 84%
    07:00 +1°C° 0 mm 1 mps 682 mmHg 83%
    08:00 +3°C° 0 mm 1 mps 682 mmHg 78%
    09:00 +5°C° 0 mm 1 mps 683 mmHg 72%
    10:00 +7°C° 0 mm 1 mps 684 mmHg 66%
    11:00 +6°C° 0 mm 2 mps 684 mmHg 63%
    12:00 +7°C° 0 mm 2 mps 684 mmHg 59%
    13:00 +8°C° 0 mm 3 mps 684 mmHg 55%
    14:00 +7°C° 0 mm 2 mps 684 mmHg 59%
    15:00 +6°C° 0 mm 2 mps 684 mmHg 62%
    16:00 +6°C° 0 mm 2 mps 685 mmHg 65%
    17:00 +4°C° 0 mm 2 mps 685 mmHg 68%
    18:00 +4°C° 0 mm 1 mps 685 mmHg 71%
    19:00 +3°C° 0 mm 1 mps 685 mmHg 74%
    20:00 +2°C° 0 mm 1 mps 685 mmHg 75%
    21:00 +2°C° 0 mm 1 mps 686 mmHg 77%
    22:00 +2°C° 0 mm 1 mps 686 mmHg 78%
    23:00 +2°C° 0 mm 1 mps 686 mmHg 79%

    23 January, Tuesday

    Time Temperature Precipitation Wind Pressure Humidity
    00:00 +2°C° 0 mm 1 mps 686 mmHg 79%
    01:00 +2°C° 0 mm 1 mps 686 mmHg 80%
    02:00 +2°C° 0 mm 1 mps 686 mmHg 80%
    03:00 +2°C° 0 mm 1 mps 686 mmHg 79%
    04:00 +2°C° 0 mm 1 mps 686 mmHg 79%
    05:00 +2°C° 0 mm 1 mps 687 mmHg 78%
    06:00 +2°C° 0 mm 1 mps 687 mmHg 77%
    07:00 +3°C° 0 mm 1 mps 687 mmHg 76%
    08:00 +4°C° 0 mm 1 mps 688 mmHg 73%
    09:00 +5°C° 0 mm 1 mps 689 mmHg 69%
    10:00 +6°C° 0 mm 1 mps 689 mmHg 66%
    11:00 +7°C° 0 mm 1 mps 689 mmHg 65%
    12:00 +7°C° 0 mm 1 mps 689 mmHg 64%
    13:00 +8°C° 0 mm 1 mps 689 mmHg 62%
    14:00 +7°C° 0 mm 1 mps 689 mmHg 68%
    15:00 +7°C° 0 mm 1 mps 689 mmHg 73%
    16:00 +6°C° 0 mm 1 mps 689 mmHg 78%
    17:00 +5°C° 0 mm 1 mps 689 mmHg 80%
    18:00 +4°C° 0 mm 1 mps 690 mmHg 82%
    19:00 +3°C° 0 mm 1 mps 690 mmHg 83%
    20:00 +3°C° 0 mm 1 mps 690 mmHg 83%
    21:00 +3°C° 0 mm 1 mps 690 mmHg 83%
    22:00 +2°C° 0 mm 1 mps 691 mmHg 83%
    23:00 +2°C° 0 mm 1 mps 691 mmHg 83%

    24 January, Wednesday

    Time Temperature Precipitation Wind Pressure Humidity
    00:00 +2°C° 0 mm 1 mps 691 mmHg 82%
    01:00 +1°C° 0 mm 2 mps 691 mmHg 82%
    02:00 -1°C° 0 mm 2 mps 691 mmHg 81%
    03:00 -1°C° 0 mm 2 mps 691 mmHg 80%
    04:00 -1°C° 0 mm 2 mps 692 mmHg 79%
    05:00 -1°C° 0 mm 2 mps 692 mmHg 79%
    06:00 -1°C° 0 mm 2 mps 692 mmHg 79%
    07:00 -1°C° 0 mm 2 mps 693 mmHg 79%
    08:00 +2°C° 0 mm 2 mps 693 mmHg 73%
    09:00 +3°C° 0 mm 2 mps 694 mmHg 67%
    10:00 +5°C° 0 mm 2 mps 694 mmHg 61%
    11:00 +7°C° 0 mm 1 mps 694 mmHg 58%
    12:00 +8°C° 0 mm 1 mps 694 mmHg 55%
    13:00 +9°C° 0 mm 1 mps 694 mmHg 52%
    14:00 +8°C° 0 mm 1 mps 694 mmHg 57%
    15:00 +7°C° 0 mm 1 mps 694 mmHg 61%
    16:00 +7°C° 0 mm 1 mps 694 mmHg 66%
    17:00 +5°C° 0 mm 1 mps 694 mmHg 69%
    18:00 +4°C° 0 mm 1 mps 694 mmHg 73%
    19:00 +3°C° 0 mm 1 mps 694 mmHg 76%
    20:00 +3°C° 0 mm 1 mps 694 mmHg 76%
    21:00 +2°C° 0 mm 1 mps 694 mmHg 75%
    22:00 +2°C° 0 mm 1 mps 694 mmHg 75%
    23:00 +2°C° 0 mm 1 mps 694 mmHg 74%
    Show more